Flight Track Log - Related Links

Times and Time Zones

All times are in EDT time to prevent confusion due to time zone crossing. See the UAL4498 flight status page for this flight to view local times or setup timezone preferences in your user account.

Time Position Orientation Groundspeed Altitude Reporting Facility
EDT Latitude Longitude Course Direction KTS MPH feet Rate Location/Type
Sat 05:43:17 PM 38.9333 -77.5333 288° West 159 183 2,500  Level Potomac TRACON
Sat 05:44:17 PM 38.9167 -77.6000 252° West 229 264 4,100 2,192 Climbing Potomac TRACON
Sat 05:45:53 PM 38.8961 -77.7100 257° West 224 258 8,200 2,850 Climbing Washington Center
Sat 05:46:57 PM 38.8825 -77.7936 258° West 209 241 11,700 2,468 Climbing Washington Center
Sat 05:47:57 PM 38.8747 -77.8567 261° West 186 214 13,300 1,122 Climbing Washington Center
Sat 05:48:00 PM 38.7986 -77.9775 288° West  Level FlightAware Approximate
Sat 05:49:00 PM 38.8711 -77.9397 267° West 230 265 14,000  Level Washington Center
Sat 05:50:04 PM 38.8653 -78.0397 266° West 276 318 14,700 857 Climbing Washington Center
Sat 05:51:06 PM 38.8586 -78.1525 266° West 311 358 15,800 1,279 Climbing Washington Center
Sat 05:52:06 PM 38.8536 -78.2861 267° West 312 359 17,300 1,403 Climbing Washington Center
Sat 05:53:10 PM 38.8522 -78.3958 269° West 312 359 18,700 1,355 Climbing Washington Center
Sat 05:54:10 PM 38.8514 -78.5078 269° West 311 358 20,100 1,306 Climbing Washington Center
Sat 05:55:14 PM 38.8503 -78.6253 269° West 325 374 21,400 1,210 Climbing Washington Center
Sat 05:56:14 PM 38.8492 -78.7419 269° West 326 375 22,600 1,258 Climbing Washington Center
Sat 05:57:18 PM 38.8469 -78.8592 269° West 326 375 24,000 1,392 Climbing Washington Center
Sat 05:58:19 PM 38.8442 -79.0003 269° West 329 379 25,500 1,344 Climbing Washington Center
Sat 05:59:23 PM 38.8428 -79.1147 269° West 327 376 26,800 1,248 Climbing Washington Center
Sat 06:00:24 PM 38.8400 -79.2269 268° West 322 371 28,100 1,258 Climbing Washington Center
Sat 06:01:27 PM 38.8389 -79.3394 269° West 318 366 29,400 1,258 Climbing Washington Center
Sat 06:02:28 PM 38.8364 -79.4481 268° West 309 356 30,700 1,230 Climbing Washington Center
Sat 06:03:29 PM 38.8350 -79.5569 269° West 307 353 31,900 624 Climbing Washington Center
Sat 06:04:33 PM 38.8311 -79.6753 268° West 317 365 32,000 48 Climbing Washington Center
Sat 06:05:33 PM 38.8283 -79.8131 269° West 330 380 32,000  Level Washington Center
Sat 06:06:08 PM 38.8256 -79.8789 267° West 333 383 32,000  Level Indianapolis Center
Sat 06:07:10 PM 38.8228 -79.9992 268° West 334 384 32,000  Level Indianapolis Center
Sat 06:08:11 PM 38.8206 -80.1178 269° West 334 384 32,000  Level Indianapolis Center
Sat 06:09:13 PM 38.8158 -80.2347 267° West 333 383 32,000  Level Indianapolis Center
Sat 06:10:14 PM 38.8131 -80.3750 269° West 332 382 32,000  Level Indianapolis Center
Sat 06:11:16 PM 38.8031 -80.4933 264° West 331 381 32,000  Level Indianapolis Center
Sat 06:12:18 PM 38.7864 -80.6094 260° West 331 381 32,000  Level Indianapolis Center
Sat 06:13:19 PM 38.7711 -80.7264 261° West 332 382 32,000  Level Indianapolis Center
Sat 06:14:21 PM 38.7544 -80.8456 260° West 333 383 32,000  Level Indianapolis Center
Sat 06:15:22 PM 38.7383 -80.9636 260° West 335 386 32,000  Level Indianapolis Center
Sat 06:16:24 PM 38.7214 -81.0872 260° West 346 398 32,000  Level Indianapolis Center
Sat 06:17:26 PM 38.7042 -81.2083 260° West 346 398 32,000  Level Indianapolis Center
Sat 06:18:27 PM 38.6869 -81.3328 260° West 349 402 32,000  Level Indianapolis Center
Sat 06:19:29 PM 38.6681 -81.4625 259° West 352 405 32,000 -244 Level Indianapolis Center
Sat 06:20:30 PM 38.6467 -81.6086 259° West 352 405 31,500 -732 Descending Indianapolis Center
Sat 06:21:32 PM 38.6319 -81.7197 260° West 358 412 30,500 -1,065 Descending Indianapolis Center
Sat 06:22:34 PM 38.6133 -81.8478 260° West 361 415 29,300 -1,268 Descending Indianapolis Center
Sat 06:23:35 PM 38.5900 -82.0039 259° West 367 422 27,900 -1,268 Descending Indianapolis Center
Sat 06:24:37 PM 38.5708 -82.1378 260° West 377 434 26,700 -1,171 Descending Indianapolis Center
Sat 06:25:38 PM 38.5503 -82.2700 259° West 377 434 25,500 -1,171 Descending Indianapolis Center
Sat 06:26:40 PM 38.5300 -82.4069 259° West 386 444 24,300 -927 Descending Indianapolis Center
Sat 06:27:41 PM 38.5078 -82.5567 259° West 388 447 23,600 -732 Descending Indianapolis Center
Sat 06:28:43 PM 38.4869 -82.6928 259° West 389 448 22,800 -780 Descending Indianapolis Center
Sat 06:29:44 PM 38.4917 -82.8261 273° West 385 443 22,000 -780 Descending Indianapolis Center
Sat 06:30:46 PM 38.5061 -82.9564 278° West 378 435 21,200 -823 Descending Indianapolis Center
Sat 06:31:48 PM 38.5211 -83.0839 279° West 371 427 20,300 -780 Descending Indianapolis Center
Sat 06:32:49 PM 38.5353 -83.2094 278° West 363 418 19,600 -976 Descending Indianapolis Center
Sat 06:33:51 PM 38.5494 -83.3322 278° West 357 411 18,300 -1,512 Descending Indianapolis Center
Sat 06:34:52 PM 38.5661 -83.4803 278° West 357 411 16,500 -1,756 Descending Indianapolis Center
Sat 06:35:54 PM 38.5792 -83.6028 278° West 356 410 14,700 -1,659 Descending Indianapolis Center
Sat 06:36:55 PM 38.5925 -83.7189 278° West 341 392 13,100 -1,770 Descending Indianapolis Center
Sat 06:37:56 PM 38.6036 -83.8319 277° West 330 380 11,100 -1,512 Descending Indianapolis Center
Sat 06:38:58 PM 38.6206 -83.9381 282° West 314 361 10,000 -537 Descending Indianapolis Center
Sat 06:39:59 PM 38.6756 -84.0400 305° West 321 369 10,000  Level Indianapolis Center
Sat 06:41:01 PM 38.7250 -84.1372 303° West 323 372 10,000  Level Indianapolis Center
Sat 06:42:02 PM 38.7733 -84.2283 304° West 317 365 10,000  Level Indianapolis Center
Sat 06:43:03 PM 38.8194 -84.3186 303° West 308 354 10,000 -439 Level Indianapolis Center
Sat 06:44:05 PM 38.8592 -84.3950 304° West 271 312 9,100 -488 Descending Indianapolis Center
Sat 06:45:06 PM 38.8986 -84.4733 303° West 265 305 9,000 -49 Descending Indianapolis Center
Sat 06:46:07 PM 38.9514 -84.5372 317° Northwest 269 310 9,000 -293 Level Indianapolis Center
Sat 06:47:09 PM 39.0247 -84.5400 358° North 262 302 8,400 -927 Descending Indianapolis Center
Sat 06:48:10 PM 39.1083 -84.5411 359° North 256 295 7,100 -1,426 Descending Indianapolis Center
Sat 06:49:11 PM 39.1667 -84.5544 350° North 232 267 5,500 -1,525 Descending Indianapolis Center
Sat 06:50:12 PM 39.1711 -84.6386 274° West 224 258 4,000 -1,600 Descending Indianapolis Center
Sat 06:51:11 PM 39.1167 -84.6500 189° South 175 201 2,300 -1,412 Descending Cincinnati TRACON
Sat 06:52:11 PM 39.0667 -84.6500 180° South 140 161 1,200 -1,100 Descending Cincinnati TRACON

Login

Don't have an account? Register now (free) for customized features, flight alerts, and more!